Date,TemperatureHighF,TemperatureAvgF,TemperatureLowF,DewpointHighF,DewpointAvgF,DewpointLowF,HumidityHigh,HumidityAvg,HumidityLow,PressureMaxIn,PressureMinIn,WindSpeedMaxMPH,WindSpeedAvgMPH,GustSpeedMaxMPH,PrecipitationSumIn
2013-4-1,61.2,44.3,32.4,47.9,35.3,14.3,92,73,42,29.47,29.16,0,0,0,0.00
2013-4-2,43.9,33.4,26.6,22.4,14.7,11.6,57,46,30,29.55,29.41,8,0,8,0.00
2013-4-3,48.4,36.0,27.0,17.6,12.9,7.1,60,40,22,29.79,29.54,10,2,10,0.00
2013-4-4,58.0,42.1,28.6,22.7,17.4,14.0,57,39,20,29.93,29.65,8,1,8,0.00
2013-4-5,66.8,46.5,35.6,30.9,25.8,21.1,68,47,23,29.65,29.34,10,2,10,0.00
2013-4-6,47.2,35.7,27.4,21.2,10.6,5.1,56,37,21,30.00,29.56,12,2,12,0.00
2013-4-7,58.7,40.4,22.7,34.2,22.9,11.3,71,52,27,30.00,29.61,12,2,12,0.00
2013-4-8,65.2,49.4,33.5,40.0,33.7,29.1,92,59,31,29.78,29.61,11,1,11,0.00
2013-4-9,65.0,51.4,43.4,51.8,42.4,35.5,90,72,51,29.76,29.56,8,1,8,0.20
2013-4-10,60.7,51.0,44.8,54.8,45.4,39.7,92,82,65,29.69,29.53,5,0,5,0.61
2013-4-11,48.4,43.8,38.5,44.4,36.7,28.3,93,77,52,29.83,29.55,7,0,7,0.06
2013-4-12,38.7,34.5,32.9,32.6,30.5,26.8,94,86,63,29.88,29.52,5,1,5,0.19
2013-4-13,52.2,42.0,33.3,42.9,36.7,31.3,94,82,62,29.61,29.46,5,0,5,0.25
2013-4-14,54.4,43.9,34.2,39.8,34.6,28.6,94,72,46,29.89,29.58,9,1,9,0.01
2013-4-15,61.6,44.6,28.4,39.0,32.6,25.2,89,66,37,30.05,29.89,7,1,7,0.00
2013-4-16,68.4,51.6,35.5,52.1,41.9,30.5,87,71,45,30.06,29.69,11,2,11,0.01
2013-4-17,70.0,55.7,40.7,52.6,36.5,28.2,86,52,29,30.03,29.69,9,2,9,0.02
2013-4-18,66.1,49.8,31.0,38.4,31.9,25.8,83,54,29,30.12,29.81,10,1,10,0.00
2013-4-19,75.6,63.1,51.5,61.7,54.2,38.2,89,73,56,29.81,29.28,9,2,9,0.07
2013-4-20,64.1,50.8,39.6,61.0,38.2,22.2,91,65,39,29.89,29.28,9,2,9,0.32
2013-4-21,57.6,43.5,33.1,27.6,21.7,16.0,62,44,23,30.36,29.89,8,1,8,0.00
2013-4-22,59.9,41.7,28.1,32.2,25.2,19.1,78,55,28,30.43,30.29,10,1,10,0.00
2013-4-23,41.6,37.5,29.9,38.3,33.0,23.9,90,84,73,30.30,29.84,6,1,6,0.00
2013-4-24,80.5,59.4,41.0,56.4,44.7,38.3,90,63,28,29.84,29.43,8,1,8,0.00
2013-4-25,67.5,56.1,39.2,50.4,35.8,26.3,77,49,27,29.97,29.44,8,2,8,0.00
2013-4-26,67.9,48.6,30.6,38.4,31.7,25.4,83,56,29,30.10,29.97,7,1,7,0.00
2013-4-27,74.3,53.0,32.6,45.8,34.9,27.5,87,55,28,30.10,29.94,6,1,6,0.00
2013-4-28,78.1,55.2,34.9,46.0,36.5,29.0,83,53,24,30.00,29.87,6,1,7,0.00
2013-4-29,76.0,57.6,40.7,48.1,39.8,33.9,79,54,33,29.94,29.83,10,1,10,0.00
2013-4-30,79.9,61.8,47.3,42.0,36.4,29.6,69,42,22,30.06,29.92,8,1,8,0.00